TNS 0-2 (42914 NORAD) Tracking and Keplerian Element Data

This shows tracking and keplerian element data for the satellite.

Feedback or suggestion? Click here.




ElementValue
Catalog42914
NameTNS 0-2
Epoch Orbit7116
Epoch Day320.00714497
Epoch Year2018
RAAN315.3928
Inclination51.635
Eccentricity0.0005805
Argument of Perigee63.2691
Mean Anonmoly296.8899
Mean Motion15.69531953
Decay Rate0.00019882
L11 42914U 98067ND 18320.00714497 .00019882 00000-0 16946-3 0 9993
L22 42914 51.6350 315.3928 0005805 63.2691 296.8899 15.69531953 71161

Live tracking and technical data element details for TNS 0-2 (NORAD 42914). TNS 0-2 can be tracked NOW for your location showing map with azimuth and elevation plus other details from your city location.

Track the satellite on the map from your city or location and see movement details for azimuth, elevation, latitude, longitude, range, height, and movement on the map or in text.







IsCatalogInMostPopularTable: catalog: 42914, numindb: 139
Update: records affected: 1



GetName: 42914 TNS 0-2

Hit Count: updated at: Mon, 19 Nov 2018 14:06:01 GMT